Regional Weather Roundup
Issued by NWS

Home | Current Version | Previous Version | Graphics & Text | Print | Product List | Glossary On
Versions: 1 2 3 4 5 6 7 8 9 10 11 12 13 14 15 16 17 18 19 20 21 22 23 24 25 26 27 28 29 30 31 32 33 34 35 36 37 38 39 40 41 42 43 44 45 46 47 48 49 50
000
ASUS43 KLSX 222307
RWRMO

WEATHER SUMMARY FOR MISSOURI
NATIONAL WEATHER SERVICE SPRINGFIELD MO
600 PM CDT THU JUN 22 2017

NOTE: "FAIR" INDICATES FEW OR NO CLOUDS BELOW 12,000 FEET WITH NO
       SIGNIFICANT WEATHER AND/OR OBSTRUCTIONS TO VISIBILITY.
       CURRENT SKY AND/OR WEATHER CONDITIONS ARE NOT AVAILABLE FOR
       CHILLICOTHE AND FARMINGTON.

MOZ001>031-035>038-043-044-053-054-230000-
...NORTHERN AND WESTERN MISSOURI...

CITY           SKY/WX    TMP DP  RH WIND       PRES   REMARKS
KANSAS CTY INT SUNNY     85  72  65 S15       29.66F HX  91
KANSAS C DTWN  MOSUNNY   87  72  60 S16       29.65F HX  93
LEE`S SUMMIT   MOSUNNY   86  72  62 SW9       29.68F HX  92
ST JOSEPH      SUNNY     87  72  60 S15       29.62F HX  93
CHILLICOTHE      N/A     85  74  69 S9        29.67F HX  92
KIRKSVILLE     MOSUNNY   84  72  67 S16       29.70F

$$
MOZ066>068-077>081-088>096-101>105-230000-
...SOUTHWEST MISSOURI...

CITY           SKY/WX    TMP DP  RH WIND       PRES   REMARKS
SPRINGFIELD    PTSUNNY   84  73  69 SE13      29.71S HX  90
JOPLIN         PTSUNNY   87  74  64 CALM      29.68F HX  95
BRANSON        PTSUNNY   82  73  74 E12       29.73F

$$
MOZ032>034-039>042-045>050-055>058-069>072-230000-
...CENTRAL MISSOURI...

CITY           SKY/WX    TMP DP  RH WIND       PRES   REMARKS
COLUMBIA       PTSUNNY   84  74  71 S9        29.72F HX  91
JEFFERSON CITY CLOUDY    85  72  65 SE8       29.70F HX  91
ROLLA          CLOUDY    83  73  72 SE7       29.74F
SEDALIA        CLOUDY    84  75  74 S8        29.72S HX  92
WHITEMAN AFB   PTSUNNY   84  77  79 S8        29.69S HX  94
WARRENSBURG    CLOUDY    82  72  69 SE8       29.69S
OSAGE BEACH    CLOUDY    83  73  72 SE3       29.72F

$$
MOZ051-052-059>065-230000-
...EAST CENTRAL MISSOURI...

CITY           SKY/WX    TMP DP  RH WIND       PRES   REMARKS
ST LOUIS INTL  CLOUDY    86  71  60 S10       29.75F HX  91
SPIRIT OF STL  PTSUNNY   85  74  69 S10       29.73F HX  92
ST CHARLES     CLOUDY    84  73  69 MISG      29.73F HX  90

$$
MOZ072>076-082>087-097>100-106>115-230000-
...SOUTH CENTRAL AND SOUTHEAST MISSOURI...

CITY           SKY/WX    TMP DP  RH WIND       PRES   REMARKS
CAPE GIRARDEAU PTSUNNY   81  74  79 SE7       29.76S
FARMINGTON     CLOUDY    79  74  84 S6        29.78F
POPLAR BLUFF   CLOUDY    84  75  74 SE5       29.72F HX  92
WEST PLAINS    MOSUNNY   85  71  63 SE7       29.75F HX  90

$$



USA.gov is the U.S. government's official web portal to all federal, state and local government web resources and services.